Regional Weather Roundup
Issued by NWS Jackson, KY

Home | Current Version | Previous Version | Text Only | Print | Product List | Glossary Off
Versions: 1 2 3 4 5 6 7 8 9 10 11 12 13 14 15 16 17 18 19 20 21 22 23 24 25 26 27 28 29 30 31 32 33 34 35 36 37 38 39 40 41 42 43 44 45 46 47 48 49 50

000
ASUS43 KJKL 070310
RWRJKL

EAST KENTUCKY HOURLY WEATHER ROUNDUP
NATIONAL WEATHER SERVICE JACKSON KY
1100 PM EDT WED MAY 06 2015

NOTE: "FAIR" INDICATES FEW OR NO CLOUDS BELOW 12,000 FEET WITH
NO SIGNIFICANT WEATHER AND/OR OBSTRUCTIONS TO VISIBILITY.

* THESE REPORTS ARE NOT UNDER NWS QUALITY CONTROL AND MAY NOT
  REPORT WEATHER SUCH AS PRECIPITATION AND FOG.

KYZ079-080-083-085-087-088-110-112-115-119-120-070400
...EASTERN KENTUCKY...

CITY           SKY/WX    TMP DP  RH WIND       PRES   REMARKS
JACKSON        PTCLDY    72  53  51 SE3       30.16R
LONDON         PTCLDY    65  56  72 CALM      30.14R
SOMERSET*      PTCLDY    63  55  77 CALM      30.14R
MONTICELLO*    CLEAR     62  58  87 CALM      30.15R
MIDDLESBORO*   MOCLDY    65  60  84 CALM      30.15S
HARLAN APT*    CLOUDY    61  59  94 CALM      30.17F
BLACK MTN*       N/A     63  52  67 S2          N/A
PIKEVILLE APT* MOCLDY    72  54  53 E7        30.16S
BIG SANDY*     PTCLDY    72  56  57 SE5       30.16R
MOREHEAD APT*  LGT RAIN  73  52  46 CALM      30.15S
$$

KYZ035-036-041-042-044-050-067-078-099-070400
...CENTRAL KENTUCKY...

CITY           SKY/WX    TMP DP  RH WIND       PRES   REMARKS
MT STERLING*   PTCLDY    64  61  88 CALM      30.15S
FLEMING/MASON* CLEAR     73  52  46 CALM      30.15R
DANVILLE*      PTCLDY    64  55  72 CALM      30.14R
RICHMOND*      CLEAR     72  55  56 CALM      30.12S
LEXINGTON      PTCLDY    68  57  68 CALM      30.13R
FRANKFORT      CLEAR     66  56  70 CALM      30.11R
$$

KYZ091>093-OHZ055-061-077-WVZ005-015-034-035-042-070400
...SOUTHERN OHIO/WEST VIRGINIA...

CITY           SKY/WX    TMP DP  RH WIND       PRES   REMARKS
COVINGTON      CLEAR     67  54  63 CALM      30.13R
COLUMBUS       CLEAR     70  56  61 NE5       30.13R
DAYTON         CLEAR     69  57  65 E7        30.15R
WILMINGTON     CLEAR     70  51  51 NE5       30.14R
HUNTINGTON     CLEAR     68  58  70 CALM      30.12R
CHARLESTON     CLEAR     67  56  67 CALM      30.13R
PINEVILLE*     MOCLDY    64  61  90 MISG      30.24S
BECKLEY        CLOUDY    68  50  52 SE3       30.22S
BLUEFIELD      PTCLDY    67  53  61 CALM      30.25R
$$

VAZ002-007-008-TNZ017-027-036-066-071-070400
...SOUTHWEST VIRGINIA/EAST TENNESSEE...

CITY           SKY/WX    TMP DP  RH WIND       PRES   REMARKS
WISE*          CLOUDY    64  50  59 CALM      30.23S
JONESVILLE*    CLOUDY    61  61 100 CALM      30.18S
ABINGDON*      PTCLDY    65  56  72 E6        30.20S
BRISTOL        PTCLDY    61  58  90 CALM      30.17R
KNOXVILLE      MOCLDY    72  56  57 S3        30.12R
OAK RIDGE      MOCLDY    73  58  59 CALM      30.13R
CROSSVILLE     CLEAR     63  52  67 SW3       30.17R
NASHVILLE      PTCLDY    69  58  67 S5        30.11R
$$

...KEY TO REMARKS...
VSB - VISIBILITY IN MILES
WCI - WIND CHILL INDEX
HX  - HEAT INDEX

$$



USA.gov is the U.S. government's official web portal to all federal, state and local government web resources and services.